Flag for Germany Weather past 2 weeks in Bayreuth, Bavaria, Germany

Now
34 °F

Overcast.


Feels Like: 28 °F
Forecast: 29 / 36 °F
Wind: 7 mph from Southwest

Location: Grafenwoehr

Current Time: Jan 28, 2015 at 1:21:54 PM

Latest Report: Jan 28, 2015 at 12:58 PM


Visibility: N/A

Pressure: 30.00 "Hg

Humidity: 93%

Dew point: 32 °F

Location of BayreuthLocation

Historic Weather in Bayreuth — Graph

°F

Bayreuth temperature yesterday

Maximum temperature yesterday: 34 °F (at 10:58 AM)
Minimum temperature yesterday: 32 °F (at 12:58 AM)
Average temperature yesterday: 32 °F

Past Weeks' High & Low Weather Summary

 TemperatureHumidityPressure
High50 °F (Jan 13, 2:58 PM)100% (Jan 15, 3:58 AM)30.38 "Hg (Jan 15, 3:58 AM)
Low28 °F (Jan 15, 2:58 AM)43% (Jan 13, 12:58 PM)29.75 "Hg (Jan 17, 4:04 AM)
Average34 °F89%30.02 "Hg
* Reported Jan 13 12:58 PM — Jan 28 12:02 PM, Bayreuth, Weather by CustomWeather, © 2014

Note: Actual official high and low records may vary slightly from our data, if they occured in-between our weather recording intervals... More about our weather records

Advertising

Bayreuth weather history for previous 24 hours

 ConditionsComfort  
Time TempWeatherWind HumidityBarometerVisibility
12:02 PM
Jan 28
34 °FLow clouds.6 mph93%29.96 "HgN/A
11:58 AM34 °FLow clouds.6 mph93%30.03 "HgN/A
10:58 AM32 °FLow clouds.3 mph100%30.06 "HgN/A
9:58 AM32 °FLight rain. Low clouds.3 mph100%30.08 "HgN/A
8:58 AM32 °FLow clouds.2 mph100%30.10 "HgN/A
7:58 AM32 °FMostly cloudy.2 mph100%30.11 "HgN/A
6:58 AM32 °FLow clouds.3 mph100%30.11 "HgN/A
5:58 AM32 °FLow clouds.2 mph100%30.11 "HgN/A
5:04 AM32 °FLight snow. Ice fog.7 mph100%30.05 "Hg2 mi
4:58 AM32 °FLight snow. Ice fog.5 mph100%30.13 "Hg2 mi
4:03 AM32 °FOvercast.7 mph100%30.07 "HgN/A
3:58 AM33 °FMostly cloudy.5 mph94%30.14 "HgN/A
2:58 AM32 °FMostly cloudy.2 mph100%30.16 "HgN/A
1:58 AM32 °FMostly cloudy.3 mph100%30.16 "HgN/A
12:58 AM33 °FLight snow. Fog.2 mph94%30.16 "Hg2 mi
11:58 PM
Jan 27
32 °FOvercast.3 mph100%30.15 "HgN/A
10:58 PM32 °FOvercast.3 mph100%30.15 "HgN/A
9:58 PM32 °FMostly cloudy.6 mph100%30.16 "HgN/A
8:58 PM32 °FOvercast.7 mph93%30.15 "HgN/A
7:58 PM32 °FOvercast.6 mph93%30.14 "HgN/A
6:58 PM32 °FPartly cloudy.6 mph93%30.14 "HgN/A
5:58 PM32 °FOvercast.7 mph93%30.13 "HgN/A
4:58 PM32 °FPartly cloudy.3 mph93%30.12 "HgN/A
3:59 PM34 °FBroken clouds.8 mph87%30.04 "HgN/A
3:58 PM34 °FBroken clouds.9 mph87%30.11 "HgN/A
2:58 PM34 °FMore clouds than sun.7 mph93%30.10 "HgN/A
2:01 PM34 °FPartly sunny.13 mph93%30.03 "HgN/A
Weather by CustomWeather, © 2014

See weather overviewHow to use our weather pages